| time (UTC) | temp F | wind direction | speed MPH | gust MPH | rain 1hr in | rain 24hr in | rain mn in | humidity % | barometer mb |
| 20260505223520 | 37 | 206 | 2.0 | 3.0 | 0.00 | 0.00 | 0.00 | 59 | 1012.5 |
| 20260505223040 | 37 | 206 | 2.0 | 3.0 | 0.00 | 0.00 | 0.00 | 59 | 1012.5 |
| 20260505221335 | 38 | 208 | 0.0 | 4.0 | 0.00 | 0.00 | 0.00 | 57 | 1012.6 |
| 20260505215802 | 40 | 129 | 0.0 | 5.0 | 0.00 | 0.00 | 0.00 | 54 | 1012.5 |
| 20260505214301 | 41 | 272 | 0.0 | 8.0 | 0.00 | 0.00 | 0.00 | 48 | 1012.4 |
| 20260505213505 | 41 | 115 | 0.0 | 5.0 | 0.00 | 0.00 | 0.00 | 50 | 1012.5 |
| 20260505212804 | 41 | 115 | 0.0 | 5.0 | 0.00 | 0.00 | 0.00 | 50 | 1012.5 |
| 20260505211301 | 42 | 179 | 2.0 | 4.0 | 0.00 | 0.00 | 0.00 | 48 | 1012.2 |
| 20260505210725 | 42 | 283 | 0.0 | 7.0 | 0.00 | 0.00 | 0.00 | 48 | 1012.1 |
| 20260505210456 | 42 | 283 | 0.0 | 7.0 | 0.00 | 0.00 | 0.00 | 48 | 1012.1 |
| 20260505205008 | 43 | 15 | 2.0 | 7.0 | 0.00 | 0.00 | 0.00 | 48 | 1012.0 |
| 20260505204254 | 43 | 15 | 2.0 | 7.0 | 0.00 | 0.00 | 0.00 | 48 | 1012.0 |
| 20260505203441 | 43 | 51 | 1.0 | 8.0 | 0.00 | 0.00 | 0.00 | 48 | 1011.7 |
| 20260505202952 | 43 | 51 | 1.0 | 8.0 | 0.00 | 0.00 | 0.00 | 48 | 1011.7 |
| 20260505201230 | 44 | 10 | 2.0 | 10.0 | 0.00 | 0.00 | 0.00 | 46 | 1011.5 |
| 20260505200439 | 42 | 316 | 0.0 | 2.0 | 0.00 | 0.00 | 0.00 | 52 | 1011.4 |
| 20260505195729 | 42 | 316 | 0.0 | 2.0 | 0.00 | 0.00 | 0.00 | 52 | 1011.4 |
| 20260505194925 | 44 | 129 | 0.0 | 6.0 | 0.00 | 0.00 | 0.00 | 45 | 1011.2 |
| 20260505194443 | 44 | 129 | 0.0 | 6.0 | 0.00 | 0.00 | 0.00 | 45 | 1011.2 |
| 20260505193242 | 46 | 324 | 3.0 | 9.0 | 0.00 | 0.00 | 0.00 | 41 | 1010.8 |
| 20260505192813 | 46 | 295 | 2.0 | 8.0 | 0.00 | 0.00 | 0.00 | 42 | 1010.9 |
| 20260505191202 | 46 | 324 | 3.0 | 9.0 | 0.00 | 0.00 | 0.00 | 41 | 1010.8 |
| 20260505185703 | 47 | 331 | 2.0 | 9.0 | 0.00 | 0.00 | 0.00 | 40 | 1010.6 |
| 20260505184857 | 47 | 329 | 4.0 | 9.0 | 0.00 | 0.00 | 0.00 | 40 | 1010.4 |
| 20260505184414 | 47 | 329 | 4.0 | 9.0 | 0.00 | 0.00 | 0.00 | 40 | 1010.4 |
| 20260505183411 | 48 | 298 | 2.0 | 11.0 | 0.00 | 0.00 | 0.00 | 39 | 1010.3 |
| 20260505182705 | 48 | 298 | 2.0 | 11.0 | 0.00 | 0.00 | 0.00 | 39 | 1010.3 |
| 20260505181202 | 51 | 293 | 2.0 | 11.0 | 0.00 | 0.00 | 0.00 | 36 | 1010.2 |
| 20260505175701 | 51 | 305 | 3.0 | 9.0 | 0.00 | 0.00 | 0.00 | 34 | 1010.1 |
| 20260505174202 | 51 | 353 | 2.0 | 13.0 | 0.00 | 0.00 | 0.00 | 34 | 1010.1 |
| 20260505173424 | 49 | 346 | 4.0 | 9.0 | 0.00 | 0.00 | 0.00 | 36 | 1010.0 |
| 20260505172659 | 49 | 346 | 4.0 | 9.0 | 0.00 | 0.00 | 0.00 | 36 | 1010.0 |
| 20260505171846 | 50 | 3 | 2.0 | 11.0 | 0.00 | 0.00 | 0.00 | 31 | 1009.9 |
| 20260505171403 | 50 | 3 | 2.0 | 11.0 | 0.00 | 0.00 | 0.00 | 31 | 1009.9 |
| 20260505170339 | 50 | 336 | 3.0 | 14.0 | 0.00 | 0.00 | 0.00 | 31 | 1009.8 |
| 20260505165630 | 50 | 336 | 3.0 | 14.0 | 0.00 | 0.00 | 0.00 | 31 | 1009.8 |
| 20260505164131 | 50 | 268 | 2.0 | 10.0 | 0.00 | 0.00 | 0.00 | 31 | 1009.9 |
| 20260505162602 | 52 | 353 | 3.0 | 12.0 | 0.00 | 0.00 | 0.00 | 29 | 1009.8 |
| 20260505161102 | 53 | 272 | 3.0 | 11.0 | 0.00 | 0.00 | 0.00 | 27 | 1009.9 |
| 20260505152530 | 55 | 272 | 5.0 | 13.0 | 0.00 | 0.00 | 0.00 | 26 | 1009.7 |
| 20260505151030 | 53 | 303 | 4.0 | 11.0 | 0.00 | 0.00 | 0.00 | 26 | 1009.7 |
| 20260505123929 | 54 | 306 | 3.0 | 12.0 | 0.00 | 0.00 | 0.00 | 27 | 1009.6 |
| 20260505122434 | 54 | 257 | 5.0 | 12.0 | 0.00 | 0.00 | 0.00 | 27 | 1009.6 |
| 20260505120930 | 52 | 313 | 7.0 | 13.0 | 0.00 | 0.00 | 0.00 | 28 | 1009.6 |
| 20260505115429 | 53 | 259 | 11.0 | 12.0 | 0.00 | 0.00 | 0.00 | 28 | 1009.5 |
| 20260505114616 | 54 | 248 | 6.0 | 13.0 | 0.00 | 0.00 | 0.00 | 28 | 1009.5 |
| 20260505113915 | 54 | 248 | 6.0 | 13.0 | 0.00 | 0.00 | 0.00 | 28 | 1009.5 |
| 20260505112402 | 53 | 344 | 3.0 | 11.0 | 0.00 | 0.00 | 0.00 | 29 | 1009.5 |
| 20260505111551 | 52 | 307 | 2.0 | 12.0 | 0.00 | 0.00 | 0.00 | 30 | 1009.7 |
| 20260505111103 | 52 | 307 | 2.0 | 12.0 | 0.00 | 0.00 | 0.00 | 30 | 1009.7 |
| 20260505102210 | 49 | 269 | 5.0 | 13.0 | 0.00 | 0.00 | 0.00 | 31 | 1010.1 |
| 20260505101025 | 49 | 269 | 5.0 | 13.0 | 0.00 | 0.00 | 0.00 | 31 | 1010.1 |
| 20260505095305 | 51 | 277 | 3.0 | 13.0 | 0.00 | 0.00 | 0.00 | 31 | 1010.0 |
| 20260505094503 | 51 | 253 | 3.0 | 10.0 | 0.00 | 0.00 | 0.00 | 30 | 1010.1 |
| 20260505093803 | 51 | 253 | 3.0 | 10.0 | 0.00 | 0.00 | 0.00 | 30 | 1010.1 |
| 20260505092301 | 50 | 315 | 0.0 | 10.0 | 0.00 | 0.00 | 0.00 | 34 | 1010.0 |
| 20260505090802 | 50 | 285 | 4.0 | 9.0 | 0.00 | 0.00 | 0.00 | 32 | 1010.1 |
| 20260505090005 | 50 | 336 | 4.0 | 9.0 | 0.00 | 0.00 | 0.00 | 36 | 1010.0 |
| 20260505085301 | 50 | 336 | 4.0 | 9.0 | 0.00 | 0.00 | 0.00 | 36 | 1010.0 |
| 20260505083802 | 48 | 277 | 5.0 | 13.0 | 0.00 | 0.00 | 0.00 | 35 | 1010.1 |
| 20260505082304 | 47 | 340 | 2.0 | 14.0 | 0.00 | 0.00 | 0.00 | 35 | 1010.2 |
| 20260505080801 | 46 | 297 | 7.0 | 12.0 | 0.00 | 0.00 | 0.00 | 38 | 1010.2 |
| 20260505075959 | 48 | 17 | 3.0 | 8.0 | 0.00 | 0.00 | 0.00 | 39 | 1010.2 |
| 20260505075304 | 48 | 17 | 3.0 | 8.0 | 0.00 | 0.00 | 0.00 | 39 | 1010.2 |
| 20260505075145 | 46 | 269 | 3.0 | 9.0 | 0.00 | 0.00 | 0.00 | 38 | 1010.3 |
| 20260505074006 | 46 | 269 | 3.0 | 9.0 | 0.00 | 0.00 | 0.00 | 38 | 1010.3 |
| 20260505072230 | 47 | 340 | 6.0 | 10.0 | 0.00 | 0.00 | 0.00 | 40 | 1010.2 |
| 20260505070731 | 46 | 344 | 5.0 | 8.0 | 0.00 | 0.00 | 0.00 | 44 | 1010.2 |
| 20260505065927 | 44 | 269 | 0.0 | 6.0 | 0.00 | 0.00 | 0.00 | 45 | 1010.2 |
| 20260505065221 | 44 | 269 | 0.0 | 6.0 | 0.00 | 0.00 | 0.00 | 45 | 1010.2 |
| 20260505063701 | 45 | 269 | 0.0 | 7.0 | 0.00 | 0.00 | 0.00 | 43 | 1010.4 |
| 20260505062202 | 43 | 141 | 2.0 | 5.0 | 0.00 | 0.00 | 0.00 | 45 | 1010.2 |
| 20260505061348 | 42 | 143 | 2.0 | 4.0 | 0.00 | 0.00 | 0.00 | 50 | 1010.2 |
| 20260505060906 | 42 | 143 | 2.0 | 4.0 | 0.00 | 0.00 | 0.00 | 50 | 1010.2 |
| 20260505055858 | 43 | 233 | 2.0 | 3.0 | 0.00 | 0.00 | 0.00 | 51 | 1010.3 |
| 20260505055146 | 43 | 233 | 2.0 | 3.0 | 0.00 | 0.00 | 0.00 | 51 | 1010.3 |
| 20260505053630 | 41 | 193 | 0.0 | 2.0 | 0.00 | 0.00 | 0.00 | 55 | 1010.3 |
| 20260505052810 | 38 | 9 | 2.0 | 3.0 | 0.00 | 0.00 | 0.00 | 63 | 1010.1 |
| 20260505052115 | 38 | 9 | 2.0 | 3.0 | 0.00 | 0.00 | 0.00 | 63 | 1010.1 |
| 20260505050603 | 35 | 107 | 0.0 | 2.0 | 0.00 | 0.00 | 0.00 | 70 | 1010.0 |
| 20260505040530 | 30 | 224 | 0.0 | 2.0 | 0.00 | 0.00 | 0.00 | 77 | 1009.7 |
| 20260505035030 | 29 | 250 | 0.0 | 2.0 | 0.00 | 0.00 | 0.00 | 80 | 1009.5 |
| 20260505034227 | 29 | 217 | 0.0 | 2.0 | 0.00 | 0.00 | 0.00 | 76 | 1009.5 |
| 20260505033741 | 29 | 217 | 0.0 | 2.0 | 0.00 | 0.00 | 0.00 | 76 | 1009.5 |
| 20260505032030 | 30 | 221 | 0.0 | 2.0 | 0.00 | 0.00 | 0.00 | 74 | 1009.6 |
| 20260505031225 | 30 | 309 | 0.0 | 2.0 | 0.00 | 0.00 | 0.00 | 74 | 1009.5 |
| 20260505030743 | 30 | 309 | 0.0 | 2.0 | 0.00 | 0.00 | 0.00 | 74 | 1009.5 |
| 20260505030324 | 31 | 212 | 0.0 | 2.0 | 0.00 | 0.00 | 0.00 | 71 | 1009.3 |
| 20260505025147 | 31 | 88 | 0.0 | 2.0 | 0.00 | 0.00 | 0.00 | 72 | 1009.3 |
| 20260505023529 | 31 | 212 | 0.0 | 2.0 | 0.00 | 0.00 | 0.00 | 71 | 1009.3 |
| 20260505022002 | 33 | 217 | 0.0 | 2.0 | 0.00 | 0.00 | 0.00 | 69 | 1009.2 |
| 20260505021911 | 33 | 13 | 0.0 | 2.0 | 0.00 | 0.00 | 0.00 | 69 | 1009.1 |
| 20260505020505 | 33 | 13 | 0.0 | 2.0 | 0.00 | 0.00 | 0.00 | 69 | 1009.1 |
| 20260505015001 | 34 | 217 | 0.0 | 2.0 | 0.00 | 0.00 | 0.00 | 66 | 1009.1 |
| 20260505014210 | 37 | 126 | 0.0 | 4.0 | 0.00 | 0.00 | 0.00 | 56 | 1008.9 |
| 20260505013502 | 37 | 126 | 0.0 | 4.0 | 0.00 | 0.00 | 0.00 | 56 | 1008.9 |
| 20260505012002 | 39 | 212 | 0.0 | 11.0 | 0.00 | 0.00 | 0.00 | 49 | 1008.7 |
| 20260505010504 | 39 | 284 | 5.0 | 10.0 | 0.00 | 0.00 | 0.00 | 49 | 1008.4 |
| 20260505005701 | 40 | 353 | 3.0 | 12.0 | 0.00 | 0.00 | 0.00 | 48 | 1008.5 |
| 20260505005001 | 40 | 353 | 3.0 | 12.0 | 0.00 | 0.00 | 0.00 | 48 | 1008.5 |
| 20260505004211 | 40 | 254 | 2.0 | 10.0 | 0.00 | 0.00 | 0.00 | 48 | 1008.5 |
| 20260505003501 | 40 | 254 | 2.0 | 10.0 | 0.00 | 0.00 | 0.00 | 48 | 1008.5 |
| 20260505002707 | 40 | 328 | 2.0 | 10.0 | 0.00 | 0.00 | 0.00 | 48 | 1008.3 |
| 20260505002001 | 40 | 328 | 2.0 | 10.0 | 0.00 | 0.00 | 0.00 | 48 | 1008.3 |
| 20260505000502 | 39 | 220 | 2.0 | 5.0 | 0.00 | 0.00 | 0.00 | 52 | 1008.3 |
| 20260504235002 | 40 | 305 | 3.0 | 10.0 | 0.00 | 0.00 | 0.00 | 54 | 1008.2 |
| 20260504234856 | 40 | 269 | 4.0 | 10.0 | 0.00 | 0.00 | 0.00 | 53 | 1008.2 |
| 20260504233713 | 40 | 269 | 4.0 | 10.0 | 0.00 | 0.00 | 0.00 | 53 | 1008.2 |
| 20260504232001 | 38 | 168 | 1.0 | 4.0 | 0.00 | 0.00 | 0.00 | 63 | 1008.2 |
| 20260504230502 | 40 | 204 | 3.0 | 7.0 | 0.00 | 0.00 | 0.00 | 53 | 1008.1 |
| 20260504224951 | 41 | 213 | 2.0 | 10.0 | 0.00 | 0.00 | 0.00 | 53 | 1007.9 |